LEMUR-2-SHAINAJOHL (42771 NORAD) Tracking and Keplerian Element Data

This shows tracking and keplerian element data for the satellite.

Feedback or suggestion? Click here.




ElementValue
Catalog42771
NameLEMUR-2-SHAINAJOHL
Epoch Orbit34428
Epoch Day239.07659073
Epoch Year2023
RAAN280.8968
Inclination97.126
Eccentricity0.0008413
Argument of Perigee194.1586
Mean Anonmoly165.9456
Mean Motion15.96312949
Decay Rate0.00724718
L11 42771U 17036G 23239.07659073 .00724718 22972-3 17544-2 0 9991
L22 42771 97.1260 280.8968 0008413 194.1586 165.9456 15.96312949344285



Live tracking and technical data element details for LEMUR-2-SHAINAJOHL (NORAD 42771). LEMUR-2-SHAINAJOHL can be tracked NOW for your location showing map with azimuth and elevation plus other details from your city location.







IsCatalogInMostPopularTable: catalog: 42771, numindb: 338
Update: records affected: 1



GetName: 42771 LEMUR-2-SHAINAJOHL

Hit Count: updated at: Thu, 22 May 2025 04:45:49 GMT